When you browse on this site, cookies collect data to enhance your experience and personalize the content and advertising you see.
Visit our Privacy Policy to learn more. By continuing to use the site, you agree to this use of cookies and data.
EN

Hourly Weather Godzimierz

Today, 21 September, Monday

Time Temperature Precipitation Wind Pressure Humidity
00:00 +12°C° 0 mm 2 mps 757 mmHg 63%
01:00 +11°C° 0 mm 1 mps 757 mmHg 63%
02:00 +11°C° 0 mm 1 mps 757 mmHg 65%
03:00 +11°C° 0 mm 1 mps 757 mmHg 66%
04:00 +10°C° 0 mm 1 mps 757 mmHg 68%
05:00 +11°C° 0 mm 1 mps 757 mmHg 67%
06:00 +10°C° 0 mm 2 mps 757 mmHg 67%
07:00 +12°C° 0 mm 2 mps 757 mmHg 65%
08:00 +14°C° 0 mm 2 mps 757 mmHg 60%
09:00 +16°C° 0 mm 2 mps 757 mmHg 55%
10:00 +18°C° 0 mm 2 mps 757 mmHg 51%
11:00 +20°C° 0 mm 2 mps 757 mmHg 48%
12:00 +21°C° 0 mm 2 mps 757 mmHg 46%
13:00 +23°C° 0 mm 2 mps 756 mmHg 43%
14:00 +23°C° 0 mm 2 mps 756 mmHg 43%
15:00 +23°C° 0 mm 2 mps 756 mmHg 43%
16:00 +23°C° 0 mm 2 mps 755 mmHg 44%
17:00 +21°C° 0 mm 1 mps 755 mmHg 49%
18:00 +19°C° 0 mm 1 mps 755 mmHg 54%
19:00 +16°C° 0 mm 1 mps 755 mmHg 60%
20:00 +16°C° 0 mm 1 mps 755 mmHg 62%
21:00 +16°C° 0 mm 1 mps 755 mmHg 63%
22:00 +15°C° 0 mm 2 mps 755 mmHg 65%
23:00 +15°C° 0 mm 2 mps 754 mmHg 66%

Tomorrow, 22 September, Tuesday

Time Temperature Precipitation Wind Pressure Humidity
00:00 +15°C° 0 mm 2 mps 754 mmHg 66%
01:00 +15°C° 0 mm 2 mps 754 mmHg 67%
02:00 +14°C° 0 mm 2 mps 754 mmHg 69%
03:00 +14°C° 0 mm 2 mps 754 mmHg 71%
04:00 +14°C° 0 mm 2 mps 753 mmHg 72%
05:00 +14°C° 0 mm 2 mps 753 mmHg 72%
06:00 +15°C° 0 mm 2 mps 753 mmHg 72%
07:00 +15°C° 0 mm 2 mps 753 mmHg 73%
08:00 +18°C° 0 mm 2 mps 753 mmHg 65%
09:00 +20°C° 0 mm 3 mps 753 mmHg 57%
10:00 +22°C° 0 mm 3 mps 753 mmHg 49%
11:00 +23°C° 0 mm 4 mps 752 mmHg 45%
12:00 +26°C° 0 mm 4 mps 752 mmHg 41%
13:00 +27°C° 0 mm 5 mps 752 mmHg 37%
14:00 +27°C° 0 mm 4 mps 751 mmHg 39%
15:00 +26°C° 0 mm 4 mps 751 mmHg 41%
16:00 +26°C° 0 mm 3 mps 750 mmHg 43%
17:00 +24°C° 0 mm 3 mps 750 mmHg 48%
18:00 +22°C° 0 mm 3 mps 750 mmHg 53%
19:00 +20°C° 0 mm 3 mps 750 mmHg 58%
20:00 +19°C° 0 mm 3 mps 749 mmHg 60%
21:00 +19°C° 0 mm 3 mps 749 mmHg 62%
22:00 +18°C° 0 mm 3 mps 749 mmHg 64%
23:00 +18°C° 0 mm 3 mps 749 mmHg 65%

Day after tomorrow, 23 September, Wednesday

Time Temperature Precipitation Wind Pressure Humidity
00:00 +17°C° 0 mm 3 mps 749 mmHg 67%
01:00 +17°C° 0 mm 3 mps 749 mmHg 68%
02:00 +16°C° 0 mm 3 mps 748 mmHg 69%
03:00 +16°C° 0 mm 2 mps 748 mmHg 69%
04:00 +16°C° 0 mm 2 mps 748 mmHg 70%
05:00 +16°C° 0 mm 2 mps 748 mmHg 69%
06:00 +16°C° 0 mm 2 mps 748 mmHg 68%
07:00 +17°C° 0 mm 2 mps 748 mmHg 67%
08:00 +19°C° 0 mm 2 mps 748 mmHg 60%
09:00 +21°C° 0 mm 3 mps 748 mmHg 54%
10:00 +24°C° 0 mm 3 mps 747 mmHg 47%
11:00 +25°C° 0 mm 3 mps 747 mmHg 46%
12:00 +26°C° 0 mm 3 mps 747 mmHg 45%
13:00 +27°C° 0 mm 4 mps 747 mmHg 44%
14:00 +26°C° 0 mm 3 mps 747 mmHg 47%
15:00 +26°C° 0 mm 3 mps 746 mmHg 49%
16:00 +26°C° 0 mm 3 mps 746 mmHg 52%
17:00 +24°C° 0 mm 2 mps 746 mmHg 55%
18:00 +23°C° 0 mm 2 mps 746 mmHg 59%
19:00 +20°C° 0 mm 2 mps 746 mmHg 63%
20:00 +20°C° 0 mm 2 mps 746 mmHg 65%
21:00 +19°C° 0 mm 2 mps 746 mmHg 67%
22:00 +19°C° 0 mm 2 mps 746 mmHg 69%
23:00 +18°C° 0 mm 2 mps 746 mmHg 73%

24 September, Thursday

Time Temperature Precipitation Wind Pressure Humidity
00:00 +18°C° 0 mm 2 mps 746 mmHg 76%
01:00 +17°C° 0 mm 2 mps 746 mmHg 79%
02:00 +17°C° 0 mm 2 mps 746 mmHg 80%
03:00 +17°C° 0 mm 2 mps 746 mmHg 80%
04:00 +17°C° 0 mm 2 mps 746 mmHg 80%
05:00 +17°C° 0 mm 2 mps 746 mmHg 76%
06:00 +17°C° 0 mm 2 mps 746 mmHg 73%
07:00 +17°C° 0 mm 2 mps 747 mmHg 70%
08:00 +19°C° 0 mm 3 mps 747 mmHg 64%
09:00 +20°C° 0 mm 3 mps 747 mmHg 58%
10:00 +22°C° 0 mm 3 mps 747 mmHg 52%
11:00 +23°C° 0 mm 4 mps 747 mmHg 49%
12:00 +25°C° 0 mm 4 mps 747 mmHg 46%
13:00 +26°C° 0 mm 4 mps 747 mmHg 44%
14:00 +25°C° 0 mm 4 mps 747 mmHg 46%
15:00 +25°C° 0 mm 3 mps 746 mmHg 49%
16:00 +25°C° 0 mm 3 mps 746 mmHg 52%
17:00 +22°C° 0 mm 3 mps 746 mmHg 56%
18:00 +21°C° 0 mm 3 mps 746 mmHg 61%
19:00 +20°C° 0 mm 3 mps 747 mmHg 65%
20:00 +19°C° 0.1 mm 3 mps 747 mmHg 69%
21:00 +18°C° 0.1 mm 3 mps 747 mmHg 73%
22:00 +18°C° 0.1 mm 3 mps 747 mmHg 77%
23:00 +18°C° 0 mm 2 mps 746 mmHg 78%

25 September, Friday

Time Temperature Precipitation Wind Pressure Humidity
00:00 +17°C° 0 mm 2 mps 746 mmHg 80%
01:00 +18°C° 0 mm 1 mps 746 mmHg 82%
02:00 +17°C° 0 mm 2 mps 746 mmHg 83%
03:00 +16°C° 0 mm 2 mps 745 mmHg 84%
04:00 +16°C° 0 mm 2 mps 745 mmHg 86%
05:00 +16°C° 0 mm 3 mps 744 mmHg 84%
06:00 +17°C° 0 mm 3 mps 744 mmHg 82%
07:00 +17°C° 0 mm 3 mps 743 mmHg 80%
08:00 +19°C° 0 mm 4 mps 743 mmHg 75%
09:00 +20°C° 0 mm 5 mps 743 mmHg 70%
10:00 +21°C° 0 mm 5 mps 742 mmHg 66%
11:00 +22°C° 0.4 mm 5 mps 742 mmHg 64%
12:00 +22°C° 0.4 mm 5 mps 741 mmHg 63%
13:00 +23°C° 0.4 mm 5 mps 741 mmHg 61%
14:00 +21°C° 0.5 mm 5 mps 740 mmHg 69%
15:00 +20°C° 0.5 mm 5 mps 740 mmHg 77%
16:00 +17°C° 0.5 mm 5 mps 739 mmHg 85%
17:00 +16°C° 0.3 mm 5 mps 740 mmHg 86%
18:00 +16°C° 0.3 mm 5 mps 740 mmHg 87%
19:00 +15°C° 0.3 mm 5 mps 740 mmHg 87%
20:00 +15°C° 0.2 mm 4 mps 740 mmHg 88%
21:00 +15°C° 0.2 mm 4 mps 740 mmHg 89%
22:00 +14°C° 0.2 mm 4 mps 740 mmHg 90%
23:00 +14°C° 0.1 mm 3 mps 740 mmHg 90%

26 September, Saturday

Time Temperature Precipitation Wind Pressure Humidity
00:00 +14°C° 0.1 mm 3 mps 740 mmHg 90%
01:00 +14°C° 0.1 mm 3 mps 740 mmHg 90%
02:00 +14°C° 0 mm 3 mps 740 mmHg 90%
03:00 +14°C° 0 mm 3 mps 740 mmHg 90%
04:00 +14°C° 0 mm 3 mps 740 mmHg 90%
05:00 +14°C° 0 mm 3 mps 740 mmHg 90%
06:00 +14°C° 0 mm 4 mps 740 mmHg 89%
07:00 +14°C° 0 mm 4 mps 740 mmHg 89%
08:00 +14°C° 0 mm 4 mps 740 mmHg 88%
09:00 +14°C° 0 mm 4 mps 740 mmHg 86%
10:00 +15°C° 0 mm 4 mps 741 mmHg 85%
11:00 +15°C° 0 mm 4 mps 741 mmHg 84%
12:00 +15°C° 0 mm 4 mps 741 mmHg 83%
13:00 +17°C° 0 mm 4 mps 741 mmHg 83%
14:00 +15°C° 0.6 mm 4 mps 740 mmHg 85%
15:00 +15°C° 0.6 mm 5 mps 740 mmHg 88%
16:00 +15°C° 0.6 mm 5 mps 740 mmHg 91%
17:00 +15°C° 1.4 mm 5 mps 740 mmHg 92%
18:00 +14°C° 1.4 mm 5 mps 739 mmHg 93%
19:00 +14°C° 1.4 mm 5 mps 739 mmHg 95%
20:00 +14°C° 1.6 mm 5 mps 738 mmHg 95%
21:00 +14°C° 1.6 mm 5 mps 738 mmHg 95%
22:00 +15°C° 1.6 mm 5 mps 738 mmHg 95%
23:00 +15°C° 0.2 mm 4 mps 737 mmHg 96%
Show more